Tracking 23114 objects as of 16-May-2021
HD Live streaming from Space Station
objects crossing your sky now

SATCOM 3 DEB

Track SATCOM 3 DEB now!


NORAD ID: 31138
Int'l Code: 1979-101H
Perigee: 8,085.3 km
Apogee: 35,628.0 km
Inclination: 8.0 °
Period: 786.6 minutes
Semi major axis: 28227 km
RCS: 0.0839 m2 (small)
Launch date: December 7, 1979
Source: United States (US)
Launch site: AIR FORCE EASTERN TEST RANGE (AFETR)

Note: This is SATELLITE DEBRIS
aabbcc
Your satellite tracking list
Your tracking list is empty




NASA's NSSDC Master Catalog

Two Line Element Set (TLE):
1 31138U 79101H   21135.90604010 -.00000123  00000-0  00000-0 0  9993
2 31138   7.9967 247.1389 4878672 163.9583 170.5746  1.83059016 96612
Source of the keplerian elements: AFSPC